This is the latest recevied weather packets stored in our database for station/object WC0AA15WX. If no packets are shown the sender has not sent any weather packets the latest 10 day(s).
| Time | Temp. | Humidity | Pressure | Rain* | Wind** | Luminosity | Snow |
|---|---|---|---|---|---|---|---|
| 1777710916 | 6.67° C | 63% | 1024.4 hPa | 0 mm | - | - | - |
| 1777710316 | 7.22° C | 62% | 1024.4 hPa | 0 mm | - | - | - |
| 1777709716 | 7.22° C | 60% | 1024.4 hPa | 0 mm | - | - | - |
| 1777709116 | 7.22° C | 59% | 1024.4 hPa | 0 mm | - | - | - |
| 1777708516 | 6.67° C | 62% | 1024.4 hPa | 0 mm | - | - | - |
| 1777707916 | 6.67° C | 64% | 1024.4 hPa | 0 mm | - | - | - |
| 1777707315 | 7.22° C | 66% | 1024.4 hPa | 0 mm | - | - | - |
| 1777706715 | 7.22° C | 66% | 1024.4 hPa | 0 mm | - | - | - |
| 1777706115 | 7.78° C | 64% | 1024.4 hPa | 0 mm | - | - | - |
| 1777705515 | 7.78° C | 63% | 1024.4 hPa | 0 mm | - | - | - |
| 1777704915 | 8.33° C | 60% | 1024.4 hPa | 0 mm | - | - | - |
| 1777704315 | 8.33° C | 60% | 1024.4 hPa | 0 mm | - | - | - |
| 1777703715 | 8.33° C | 60% | 1024.4 hPa | 0 mm | - | - | - |
| 1777703115 | 8.89° C | 61% | 1024.4 hPa | 0 mm | - | - | - |
| 1777702515 | 8.89° C | 59% | 1024.4 hPa | 0 mm | - | - | - |
| 1777701915 | 8.89° C | 59% | 1024.4 hPa | 0 mm | - | - | - |
| 1777701315 | 9.44° C | 60% | 1024.4 hPa | 0 mm | - | - | - |
| 1777700715 | 9.44° C | 62% | 1024.4 hPa | 0 mm | - | - | - |
| 1777700115 | 9.44° C | 63% | 1024.4 hPa | 0 mm | - | - | - |
| 1777699515 | 10° C | 60% | 1024.4 hPa | 0 mm | - | - | - |
| 1777698915 | 9.44° C | 59% | 1024.4 hPa | 0 mm | - | - | - |
| 1777698314 | 10° C | 60% | 1024.4 hPa | 0 mm | - | - | - |
| 1777697714 | 10° C | 60% | 1024 hPa | 0 mm | - | - | - |
| 1777697114 | 10° C | 60% | 1024 hPa | 0 mm | - | - | - |
| 1777696514 | 10.56° C | 60% | 1024 hPa | 0 mm | - | - | - |
* Rain latest hour (hover to see other rain measurements)
** Current wind speed in m/s (hover to see current wind gust speed)